Home > Time Zones > World Clock > Weather > India > Patna > Past weeks

Flag for India Weather past 2 weeks in Patna, Bihar, India

Now
88 °F

Haze.


Feels Like: 87 °F
Forecast: 80 / 110 °F
Wind: 5 mph from West

Location: Patna Airport


UV Index: 7 (High)

Visibility: 2 mi


Pressure: 29.74 "Hg

Humidity: 35%

Dew point: 57 °F

Location of PatnaLocation

Historic Weather in Patna

°F

Patna temperature yesterday

Maximum temperature yesterday: 104 °F (at 3:20 PM)
Minimum temperature yesterday: 75 °F (at 5:20 AM)
Average temperature yesterday: 94 °F

Past Weeks' High & Low Weather Summary

 TemperatureHumidityPressure
High104 °F (Apr 16, 3:20 PM)69% (Apr 13, 6:20 AM)29.89 "Hg (Apr 13, 6:20 AM)
Low66 °F (Apr 11, 5:20 AM)11% (Apr 21, 2:20 PM)29.56 "Hg (Apr 24, 4:20 PM)
Average91 °F31%29.76 "Hg
* Reported Apr 10 8:20 AM — Apr 25 8:20 AM, Patna, Weather by CustomWeather, © 2014

Note: Actual official high and low records may vary slightly from our data, if they occured in-between our weather recording intervals... More about our weather records

Advertising

Historic Weather Conditions — Data for Previous 24 hours

 ConditionsComfort  
Time TempWeatherWind HumidityBarometerVisibility
8:20 AM
Apr 25
82 °FHaze.6 mph45%29.74 "Hg1 mi
7:20 AM77 °FHaze.6 mph54%29.71 "Hg1 mi
6:20 AM75 °FHaze.5 mph57%29.68 "Hg1 mi
5:20 AM75 °FHaze.2 mph57%29.68 "Hg1 mi
8:20 PM
Apr 24
90 °FHaze.2 mph29%29.65 "Hg3 mi
7:20 PM90 °FHaze.2 mph31%29.62 "Hg3 mi
6:20 PM97 °FHaze.6 mph22%29.59 "Hg3 mi
5:20 PM100 °FClear.12 mph18%29.59 "Hg4 mi
4:20 PM102 °FClear.14 mph17%29.56 "Hg4 mi
3:20 PM104 °FClear.17 mph15%29.59 "Hg4 mi
2:20 PM102 °FClear.14 mph14%29.62 "Hg4 mi
1:20 PM102 °FPassing clouds.17 mph17%29.65 "Hg4 mi
12:20 PM102 °FClear.16 mph20%29.71 "Hg4 mi
11:20 AM99 °FHaze.14 mph22%29.71 "Hg3 mi
10:20 AM97 °FHaze.8 mph25%29.74 "Hg2 mi
9:20 AM93 °FHaze.7 mph30%29.74 "Hg2 mi
Weather by CustomWeather, © 2014

See weather overview